Terminal Aerodrome Forecast
Issued by NWS

Home | Current Version | Previous Version | Text Only | Print | Product List | Glossary On
Versions: 1 2 3 4 5 6 7 8 9 10 11 12 13 14 15 16 17
000
FTUS46 KMTR 230800 AAA
TAFOAK
TAF AMD
KOAK 230824Z 2308/2412 29005KT P6SM BKN012
     FM231900 30010KT P6SM FEW015
     FM232100 30016KT P6SM FEW015
     FM240400 30010KT P6SM BKN015
     FM240600 31005KT P6SM OVC015=

USA.gov is the U.S. government's official web portal to all federal, state and local government web resources and services.